Waarnemingen

Advertentie
Mijn weer
Chivenor, Groot Brittannië (3707): temperatuur & dauwpunt: 14.10.2018 14:00:00 - 20.10.2018 14:00:00 (BST)Chivenor, Groot Brittannië (3707): temperatuur -20cm & temperatuur -100cm: 14.10.2018 14:00:00 - 20.10.2018 14:00:00 (BST)Chivenor, Groot Brittannië (3707): windsnelheid: 14.10.2018 14:00:00 - 20.10.2018 14:00:00 (BST)Chivenor, Groot Brittannië (3707): windrichting: 14.10.2018 14:00:00 - 20.10.2018 14:00:00 (BST)Chivenor, Groot Brittannië (3707): luchtdruk: 14.10.2018 14:00:00 - 20.10.2018 14:00:00 (BST)Chivenor, Groot Brittannië (3707): zicht: 14.10.2018 14:00:00 - 20.10.2018 14:00:00 (BST)Chivenor, Groot Brittannië (3707): neerslag: 14.10.2018 14:00:00 - 20.10.2018 14:00:00 (BST)
Datum & Tijd tt [°C] td [°C] tt -20cm [°C] tt -100cm [°C] ff [km/u] ff [kn] dd ppp [hPa] vv [km] rr [mm]
20.10.2018 14:00:00 - - - - - - - - - -
20.10.2018 13:00:00 17,1 12,3 - - 4 2 ZZO 1032,3 14 0,0
20.10.2018 12:00:00 14,4 12,1 - - 5 3 O 1033,0 27 0,0
20.10.2018 11:00:00 11,3 10,0 - - 9 5 O 1032,8 20 -
20.10.2018 10:00:00 8,8 8,2 13,2 14,9 13 7 O 1032,5 13 0,0
20.10.2018 09:00:00 6,8 6,4 - - 11 6 O 1032,0 13 0,0
20.10.2018 08:00:00 6,5 6,0 - - 13 7 O 1031,7 11 0,0
20.10.2018 07:00:00 6,4 6,0 - - 13 7 O 1030,9 9 0,0
20.10.2018 06:00:00 6,9 6,6 - - 13 7 O 1030,8 7 0,0
20.10.2018 05:00:00 7,0 6,6 - - 9 5 O 1030,4 7 0,0
20.10.2018 04:00:00 7,0 6,7 - - 11 6 O 1030,1 6 0,0
20.10.2018 03:00:00 6,6 6,2 - - 9 5 OZO 1030,1 5 0,0
20.10.2018 02:00:00 7,2 6,9 - - 13 7 O 1029,6 7 0,0
20.10.2018 01:00:00 7,1 6,6 - - 11 6 O 1029,8 5 0,0
20.10.2018 00:00:00 8,0 7,4 - - 9 5 O 1029,4 5 0,0
19.10.2018 23:00:00 8,3 7,7 - - 11 6 O 1029,4 5 0,0
19.10.2018 22:00:00 9,4 8,5 - - 8 4 O 1029,3 6 0,0
19.10.2018 21:00:00 10,4 9,7 - - 11 6 O 1028,4 6 0,0
19.10.2018 20:00:00 11,3 10,0 - - 4 2 NO 1028,5 13 0,0
19.10.2018 19:00:00 12,0 10,3 - - 4 2 WZW 1028,0 14 0,0
19.10.2018 18:00:00 13,6 11,3 - - 8 4 NW 1027,6 14 0,0
19.10.2018 17:00:00 15,4 11,1 - - 8 4 WNW 1027,1 28 0,0
19.10.2018 16:00:00 16,2 10,4 - - 8 4 W 1026,7 30 0,0
19.10.2018 15:00:00 16,0 11,3 - - 13 7 WNW 1026,6 24 0,0
19.10.2018 14:00:00 16,9 11,5 - - 9 5 ZW 1026,6 23 0,0
19.10.2018 13:00:00 16,0 10,5 - - 5 3 ZW 1026,9 19 0,0
19.10.2018 12:00:00 14,2 10,6 - - 5 3 OZO 1027,3 12 0,0
19.10.2018 11:00:00 11,4 9,1 - - 9 5 O 1027,0 23 0,0
19.10.2018 10:00:00 8,4 7,4 13,4 15,0 11 6 O 1026,5 17 0,0
19.10.2018 09:00:00 7,0 6,4 - - 13 7 O 1026,5 15 0,0
19.10.2018 08:00:00 6,2 5,6 - - 11 6 O 1026,2 14 0,0
19.10.2018 07:00:00 6,7 6,2 - - 9 5 O 1026,0 12 0,0
19.10.2018 06:00:00 6,4 6,0 - - 15 8 O 1025,6 9 0,0
19.10.2018 05:00:00 5,9 5,5 - - 11 6 O 1025,9 8 0,0
19.10.2018 04:00:00 6,8 6,4 - - 5 3 NO 1026,5 11 0,0
19.10.2018 03:00:00 6,5 6,1 - - 15 8 O 1025,7 6 0,0
19.10.2018 02:00:00 6,3 5,8 - - 9 5 O 1026,2 5 0,0
19.10.2018 01:00:00 6,8 5,8 - - 2 1 ONO 1026,7 9 0,0
19.10.2018 00:00:00 8,5 7,7 - - 5 3 O 1026,8 10 0,0
18.10.2018 23:00:00 8,3 7,3 - - 8 4 O 1026,4 10 0,0
18.10.2018 22:00:00 8,5 7,2 - - 5 3 O 1026,4 14 0,0
18.10.2018 21:00:00 10,1 8,4 - - 8 4 O 1026,3 18 0,0
18.10.2018 20:00:00 9,7 7,3 - - 8 4 O 1026,3 20 0,0
18.10.2018 19:00:00 11,8 8,6 - - 9 5 O 1026,0 30 0,0
18.10.2018 18:00:00 13,4 8,7 - - 18 10 O 1025,8 35 0,0
18.10.2018 17:00:00 15,0 8,9 - - 15 8 O 1026,0 35 0,0
18.10.2018 16:00:00 15,4 9,4 - - 16 9 ONO 1026,1 30 0,0
18.10.2018 15:00:00 15,6 8,4 - - 11 6 NO 1026,3 35 0,0
18.10.2018 14:00:00 16,3 9,6 - - 13 7 OZO 1026,7 28 0,0
18.10.2018 13:00:00 15,9 9,6 - - 11 6 OZO 1027,2 30 0,0
18.10.2018 12:00:00 14,4 9,0 - - 11 6 O 1027,6 30 0,0
18.10.2018 11:00:00 12,4 8,5 - - 15 8 ONO 1027,9 26 0,0
18.10.2018 10:00:00 11,5 7,7 14,2 15,0 16 9 O 1027,7 50 0,0
18.10.2018 09:00:00 10,8 7,7 - - 11 6 O 1027,5 50 0,0
18.10.2018 08:00:00 10,5 7,3 - - 13 7 O 1027,1 50 0,0
18.10.2018 07:00:00 10,2 6,9 - - 13 7 ONO 1026,8 50 0,0
18.10.2018 06:00:00 10,3 7,0 - - 11 6 O 1026,3 50 0,0
18.10.2018 05:00:00 10,4 7,8 - - 15 8 O 1026,0 45 0,0
18.10.2018 04:00:00 10,4 8,4 - - 5 3 NNO 1026,3 40 0,0
18.10.2018 03:00:00 10,5 8,2 - - 11 6 OZO 1026,0 50 0,0
18.10.2018 02:00:00 11,6 9,2 - - 5 3 NO 1025,9 35 0,0
18.10.2018 01:00:00 10,8 9,5 - - 4 2 NNO 1025,6 25 0,0
18.10.2018 00:00:00 10,8 9,2 - - 5 3 ZO 1025,3 21 0,0
17.10.2018 23:00:00 12,4 10,2 - - 8 4 N 1024,7 22 0,0
17.10.2018 22:00:00 12,8 10,4 - - 18 10 NNO 1024,3 25 0,0
17.10.2018 21:00:00 13,2 10,7 - - 18 10 N 1023,7 20 0,0
17.10.2018 20:00:00 13,6 10,5 - - 16 9 N 1023,0 27 0,0
17.10.2018 19:00:00 14,1 10,8 - - 15 8 N 1022,3 14 0,0
17.10.2018 18:00:00 14,7 11,2 - - 11 6 N 1021,4 11 0,0
17.10.2018 17:00:00 15,3 11,6 - - 11 6 NNW 1020,9 18 0,0
17.10.2018 16:00:00 16,2 10,7 - - 13 7 N 1020,4 16 0,0
17.10.2018 15:00:00 16,9 9,8 - - 15 8 N 1020,1 24 0,0
17.10.2018 14:00:00 16,4 10,4 - - 16 9 N 1019,8 28 0,0
17.10.2018 13:00:00 16,1 11,2 - - 13 7 NNO 1019,6 16 0,0
17.10.2018 12:00:00 15,5 11,5 - - 13 7 N 1019,7 12 0,0
17.10.2018 11:00:00 15,8 12,7 - - 5 3 Z 1019,0 20 0,0
17.10.2018 10:00:00 12,7 12,0 14,5 15,2 4 2 Z 1018,8 22 0,2
17.10.2018 09:00:00 12,5 11,9 - - 2 1 ONO 1018,2 30 0,0
17.10.2018 08:00:00 12,2 11,5 - - 5 3 O 1017,8 30 0,0
17.10.2018 07:00:00 12,4 11,6 - - 8 4 O 1017,4 27 0,0
17.10.2018 06:00:00 12,5 10,9 - - 5 3 O 1016,9 30 0,0
17.10.2018 05:00:00 12,8 10,8 - - 4 2 W 1016,4 35 0,0
17.10.2018 04:00:00 13,7 9,9 - - 9 5 WZW 1016,2 50 0,0
17.10.2018 03:00:00 13,3 12,6 - - 8 4 W 1016,4 18 0,2
17.10.2018 02:00:00 13,5 13,0 - - 16 9 ZW 1016,5 3,4 0,2
17.10.2018 01:00:00 13,4 12,7 - - 15 8 ZZW 1016,3 7 0,0
17.10.2018 00:00:00 13,3 12,2 - - 13 7 Z 1016,4 40 0,0
16.10.2018 23:00:00 13,2 11,9 - - 9 5 Z 1016,3 28 0,0
16.10.2018 22:00:00 12,7 11,4 - - 5 3 O 1016,5 4,9 0,0
16.10.2018 21:00:00 12,8 11,2 - - 5 3 Z 1016,4 50 0,0
16.10.2018 20:00:00 11,9 10,8 - - 8 4 OZO 1016,4 50 0,0
16.10.2018 19:00:00 11,1 9,3 - - 9 5 ZZO 1016,1 45 0,0
16.10.2018 18:00:00 13,9 10,4 - - 5 3 Z 1015,7 50 0,0
16.10.2018 17:00:00 14,9 10,3 - - 16 9 WZW 1015,8 40 0,0
16.10.2018 16:00:00 15,0 11,5 - - 16 9 ZW 1015,7 45 0,0
16.10.2018 15:00:00 13,5 11,9 - - 16 9 ZW 1015,9 6 0,0
16.10.2018 14:00:00 13,8 12,2 - - 16 9 ZW 1015,7 16 0,0
16.10.2018 13:00:00 14,0 11,6 - - 22 12 WZW 1015,5 50 0,0
16.10.2018 12:00:00 14,9 12,3 - - 15 8 ZZW 1015,4 35 0,0
16.10.2018 11:00:00 13,9 13,5 - - 9 5 ZW 1015,2 13 0,2
16.10.2018 10:00:00 13,6 13,2 14,4 15,2 9 5 Z 1015,3 2,1 0,0
16.10.2018 09:00:00 13,4 13,1 - - 4 2 ZZW 1014,8 4,9 0,2
16.10.2018 08:00:00 13,2 12,9 - - 8 4 Z 1014,3 4,8 0,0
16.10.2018 07:00:00 12,7 12,4 - - 13 7 ZO 1013,6 3,8 0,0
16.10.2018 06:00:00 13,0 12,6 - - 13 7 OZO 1013,6 1,5 0,6
16.10.2018 05:00:00 12,9 12,4 - - 9 5 OZO 1013,5 4,5 0,0
16.10.2018 04:00:00 12,8 12,2 - - 15 8 OZO 1013,5 3,5 0,0
16.10.2018 03:00:00 12,7 11,9 - - 9 5 OZO 1013,8 4,5 0,0
16.10.2018 02:00:00 12,5 11,4 - - 2 1 N 1013,8 9 0,0
16.10.2018 01:00:00 12,3 11,3 - - 8 4 OZO 1013,7 7 0,0
16.10.2018 00:00:00 12,2 11,1 - - 13 7 ZO 1014,0 8 0,0
15.10.2018 23:00:00 12,0 10,7 - - 4 2 WZW 1013,9 40 0,0
15.10.2018 22:00:00 12,3 10,6 - - 4 2 NO 1013,6 45 0,0
15.10.2018 21:00:00 12,2 10,7 - - 4 2 ZZO 1013,7 50 0,0
15.10.2018 20:00:00 11,9 10,3 - - 9 5 ZO 1012,8 50 0,0
15.10.2018 19:00:00 12,4 10,4 - - 8 4 ZO 1012,7 50 0,0
15.10.2018 18:00:00 12,8 10,4 - - 13 7 O 1012,3 50 0,0
15.10.2018 17:00:00 13,1 10,1 - - 18 10 ONO 1012,1 50 0,0
15.10.2018 16:00:00 13,2 10,3 - - 24 13 ONO 1011,9 50 0,0
15.10.2018 15:00:00 13,1 9,9 - - 22 12 ONO 1011,7 50 0,0
15.10.2018 14:00:00 12,9 9,7 - - 24 13 ONO 1011,7 40 0,0
15.10.2018 13:00:00 13,0 9,8 - - 24 13 O 1011,7 50 0,0
15.10.2018 12:00:00 12,8 9,8 - - 21 11 ONO 1011,2 50 0,0
15.10.2018 11:00:00 12,1 9,6 - - 18 10 ONO 1011,4 50 0,0
15.10.2018 10:00:00 11,9 9,4 14,4 15,2 18 10 NO 1011,1 50 0,0
15.10.2018 09:00:00 11,3 9,4 - - 11 6 NO 1010,8 50 0,0
15.10.2018 08:00:00 10,9 9,0 - - 9 5 ONO 1010,1 45 0,0
15.10.2018 07:00:00 11,0 8,8 - - 13 7 ONO 1009,8 50 0,0
15.10.2018 06:00:00 10,9 8,5 - - 11 6 ONO 1009,4 50 0,0
15.10.2018 05:00:00 11,0 8,1 - - 9 5 ONO 1009,5 50 0,0
15.10.2018 04:00:00 10,8 7,5 - - 13 7 NO 1009,3 50 0,0
15.10.2018 03:00:00 10,8 7,3 - - 9 5 NO 1009,8 50 0,0
15.10.2018 02:00:00 10,4 6,7 - - 9 5 NO 1009,7 50 0,0
15.10.2018 01:00:00 10,3 6,5 - - 9 5 NO 1009,8 50 0,0
15.10.2018 00:00:00 10,6 7,0 - - 13 7 ONO 1010,0 50 0,0
14.10.2018 23:00:00 10,4 6,6 - - 5 3 ONO 1010,0 50 0,0
14.10.2018 22:00:00 11,4 6,8 - - 13 7 ONO 1009,8 50 0,0
14.10.2018 21:00:00 11,5 7,6 - - 11 6 ONO 1009,5 50 0,0
14.10.2018 20:00:00 11,1 7,7 - - 8 4 ONO 1009,6 50 0,0
14.10.2018 19:00:00 11,9 7,4 - - 8 4 ONO 1009,3 50 0,0
14.10.2018 18:00:00 13,3 7,9 - - 8 4 ONO 1009,0 45 0,0
14.10.2018 17:00:00 13,9 7,7 - - 13 7 NNO 1008,6 50 0,0
14.10.2018 16:00:00 14,1 7,8 - - 11 6 NNO 1008,6 50 0,0
14.10.2018 15:00:00 13,6 7,7 - - 16 9 NO 1008,3 35 0,0
14.10.2018 14:00:00 12,8 7,3 - - 21 11 NO 1008,1 50 0,0

tt = temperatuur
td = dauwpunt
tt -20cm = temperatuur -20cm
tt -100cm = temperatuur -100cm
ff = windsnelheid
dd = windrichting
ppp = luchtdruk
vv = zicht
rr = neerslag

Weerstations in de omgeving